Vorticity
8 5 8 18 16 24 17 33 47 86 18 21 38 34 10 19 10 -3 19 7 22 15 -8 10 3 5 19 8 6 11 7 9 10 9 4 10 2 6 19 13 22 -11 9 11
6 7 5 21 17 13 33 38 52 -11 6 14 33 17 16 17 5 -1 14 -4 6 5 16 9 9 9 11 7 2 7 6 10 6 12 6 8 7 7 -5 4 11 36 -5 20
5 9 4 18 18 13 25 34 7 8 20 8 39 21 20 10 8 25 -3 20 -0 17 6 6 6 11 10 12 12 10 5 5 5 8 7 4 3 5 4 11 24 9 30 -13
7 10 12 16 21 5 20 23 28 -0 18 11 21 16 8 15 6 7 16 1 7 6 -7 -7 1 2 4 3 6 5 5 7 5 7 6 5 5 8 0 -5 16 2 14 44
9 11 21 18 17 7 18 10 24 10 15 1 12 17 12 24 3 7 11 24 6 4 11 11 12 13 9 8 2 7 9 9 8 9 6 10 8 5 11 1 2 15 18 47
10 9 25 18 16 17 25 10 13 14 9 4 11 11 17 4 28 16 -1 6 6 19 2 10 15 0 -1 4 11 2 5 8 8 8 7 8 3 4 7 12 7 -2 17 22
9 4 24 17 13 18 19 10 9 18 3 11 7 2 8 10 5 15 16 7 5 13 11 1 -4 18 13 11 6 7 7 10 11 9 9 7 4 5 6 7 5 8 -6 40
8 4 23 17 8 16 11 15 11 13 19 11 3 3 10 -6 12 10 4 5 8 5 5 20 18 8 7 9 8 9 8 8 7 9 7 5 4 13 10 7 10 -0 6 5
10 7 20 16 12 21 12 11 13 11 12 19 18 10 9 1 16 5 9 24 16 8 11 11 7 9 10 13 12 9 11 9 6 6 7 8 5 12 12 7 2 -0 0 7
12 19 18 14 18 15 14 10 14 12 6 11 12 13 11 9 11 16 9 7 10 9 8 10 11 14 12 13 13 8 11 12 12 18 22 11 11 7 11 9 16 11 13 8
4 28 15 12 21 12 18 13 14 10 14 12 11 13 10 10 10 8 10 8 8 6 12 14 11 14 10 10 9 12 14 15 31 16 18 32 43 35 4 10 8 2 4 10
14 23 12 15 19 10 25 14 14 11 9 14 10 8 6 8 11 11 5 6 8 9 13 13 17 11 15 2 17 10 16 18 -5 -0 5 12 30 27 16 24 6 -2 7 4
26 18 10 12 18 13 12 17 14 15 14 14 22 14 21 7 16 23 20 20 14 13 16 6 24 15 14 9 7 21 18 -9 -21 47 2 13 31 37 20 20 20 16 3 0
20 17 11 9 12 13 15 11 13 9 7 6 2 1 13 15 23 27 27 36 21 22 5 6 5 17 -9 -6 12 32 -1 -10 17 14 6 4 16 8 11 14 21 16 8 12
17 14 13 6 6 8 11 23 11 8 9 10 -0 -5 1 18 20 27 31 15 -8 4 12 6 9 24 15 2 15 7 21 -7 18 -20 28 39 -2 9 9 20 21 2 -14 13
11 8 13 9 5 3 4 -0 13 25 7 8 6 14 3 15 22 21 30 -4 2 -17 2 6 12 27 -2 16 -2 16 29 10 21 18 -4 -5 21 25 16 4 -8 6 25 28
8 7 8 10 11 8 6 5 4 18 27 5 13 5 7 10 21 15 8 -5 13 19 1 6 17 22 7 -4 -17 6 -3 -10 -9 11 7 6 11 1 -3 -10 30 16 23 4
9 12 10 10 12 8 7 7 5 3 28 18 15 10 14 27 19 22 28 5 -16 -0 -17 5 11 21 26 9 -9 0 14 13 6 -1 5 8 6 6 7 8 10 6 14 12
7 6 4 7 1 7 7 8 6 5 20 14 7 14 6 4 35 28 13 39 8 -4 -2 13 13 10 9 3 14 11 1 2 6 4 7 3 5 5 5 4 4 4 4 6
11 11 7 1 1 9 10 6 7 6 17 15 8 6 3 7 22 31 29 29 22 15 5 6 9 8 8 11 7 10 6 4 7 11 3 1 2 1 5 7 4 3 5 6
17 9 10 16 15 16 10 6 6 8 22 20 9 -5 12 15 4 26 13 19 17 5 -1 3 7 8 14 12 8 8 5 6 10 11 8 7 10 10 7 6 7 7 7 7
34 16 20 8 15 16 5 9 8 12 24 10 9 13 9 1 -4 22 13 7 2 3 5 -1 10 17 10 8 11 9 8 7 8 5 9 14 15 17 19 19 16 13 11 8
27 8 10 17 15 -0 11 11 4 18 23 12 1 11 10 3 9 -9 18 15 10 0 -1 8 12 10 16 20 16 14 13 13 16 16 18 15 14 15 16 16 16 18 19 19
19 13 15 20 -11 11 7 6 20 20 17 13 -3 6 3 -0 3 1 7 9 -2 12 9 9 12 9 4 12 13 9 6 6 7 4 3 6 12 14 15 13 11 10 10 8
11 6 17 15 5 4 2 13 18 16 14 16 4 5 9 9 6 3 5 10 11 -2 15 18 14 12 8 7 7 4 6 6 5 14 13 -0 9 12 6 9 16 22 24 24
0 -8 2 2 8 6 6 11 21 15 23 9 2 2 2 -1 -1 6 3 5 22 13 10 2 7 8 8 11 8 7 12 15 8 6 9 13 17 9 6 8 10 11 10 9
10 19 24 26 19 24 26 13 17 18 15 6 4 2 -2 2 3 4 26 18 6 6 9 2 9 10 5 16 16 7 3 9 13 9 5 4 4 4 4 6 9 7 6 5
Height
5537 5528 5519 5510 5500 5491 5481 5471 5464 5462 5465 5470 5475 5486 5498 5507 5514 5520 5525 5534 5540 5546 5551 5555 5561 5567 5572 5576 5580 5585 5589 5593 5596 5601 5601 5605 5605 5605 5603 5602 5604 5604 5604 5604
5530 5521 5512 5503 5494 5485 5475 5468 5464 5466 5468 5471 5474 5484 5494 5503 5508 5515 5523 5527 5536 5541 5548 5553 5556 5563 5568 5572 5577 5580 5585 5589 5592 5594 5597 5598 5599 5599 5598 5599 5598 5600 5599 5600
5523 5514 5506 5497 5490 5482 5476 5472 5471 5471 5472 5473 5476 5484 5492 5500 5503 5509 5518 5525 5529 5537 5543 5548 5554 5559 5564 5569 5572 5577 5581 5583 5587 5590 5592 5593 5595 5594 5593 5595 5595 5594 5595 5593
5516 5509 5502 5494 5488 5481 5478 5475 5473 5474 5475 5477 5480 5486 5493 5498 5502 5506 5513 5520 5526 5531 5539 5544 5548 5554 5559 5564 5568 5572 5576 5578 5580 5583 5585 5587 5589 5590 5589 5591 5591 5590 5590 5587
5510 5504 5497 5490 5486 5481 5479 5477 5476 5477 5478 5480 5483 5487 5492 5496 5501 5506 5511 5519 5524 5530 5535 5541 5545 5548 5553 5556 5562 5566 5569 5572 5575 5578 5579 5581 5582 5585 5583 5586 5586 5586 5584 5582
5503 5498 5492 5487 5483 5480 5477 5477 5478 5480 5481 5482 5485 5488 5492 5496 5500 5505 5510 5517 5523 5527 5532 5536 5542 5547 5550 5553 5557 5560 5563 5565 5568 5571 5573 5574 5578 5578 5577 5580 5581 5582 5582 5581
5497 5492 5487 5483 5480 5478 5477 5477 5477 5479 5481 5483 5486 5489 5493 5495 5499 5504 5509 5514 5519 5524 5528 5533 5538 5542 5545 5546 5550 5554 5556 5558 5561 5564 5566 5568 5571 5571 5570 5574 5577 5578 5580 5580
5490 5487 5482 5479 5477 5475 5474 5475 5477 5478 5479 5482 5486 5489 5493 5496 5500 5503 5507 5513 5517 5521 5525 5530 5533 5537 5541 5544 5545 5546 5549 5551 5554 5556 5559 5563 5566 5565 5566 5568 5573 5573 5576 5578
5484 5480 5476 5474 5473 5473 5472 5472 5474 5476 5478 5481 5484 5488 5492 5495 5497 5501 5504 5510 5513 5517 5521 5525 5529 5532 5536 5539 5541 5541 5543 5545 5548 5551 5552 5554 5560 5559 5559 5561 5566 5568 5571 5574
5477 5473 5471 5469 5468 5468 5469 5470 5471 5474 5475 5478 5481 5484 5488 5491 5495 5498 5502 5505 5509 5513 5517 5521 5524 5527 5530 5533 5536 5537 5538 5539 5542 5542 5541 5545 5550 5552 5552 5555 5561 5560 5566 5569
5470 5467 5465 5464 5464 5464 5465 5467 5468 5471 5473 5475 5479 5482 5485 5488 5491 5494 5499 5503 5505 5509 5512 5515 5518 5522 5525 5529 5532 5534 5535 5535 5537 5536 5535 5536 5540 5542 5545 5548 5551 5554 5559 5562
5463 5461 5460 5460 5460 5461 5461 5464 5465 5467 5470 5474 5475 5478 5481 5483 5486 5489 5492 5497 5501 5504 5507 5510 5513 5518 5521 5525 5528 5529 5532 5531 5533 5533 5531 5532 5533 5532 5534 5540 5545 5548 5553 5556
5456 5456 5456 5457 5457 5458 5460 5460 5463 5466 5468 5471 5473 5475 5477 5480 5480 5482 5485 5489 5495 5499 5502 5506 5509 5514 5518 5521 5524 5525 5527 5527 5527 5525 5528 5527 5525 5527 5529 5534 5538 5542 5545 5547
5450 5451 5453 5454 5455 5456 5458 5460 5461 5464 5467 5469 5472 5473 5475 5475 5476 5476 5478 5482 5490 5496 5499 5501 5505 5511 5515 5518 5519 5521 5522 5524 5521 5523 5524 5525 5525 5527 5528 5530 5532 5535 5538 5540
5444 5446 5449 5451 5453 5455 5457 5459 5460 5462 5466 5468 5469 5472 5473 5474 5474 5474 5475 5481 5487 5492 5497 5500 5503 5506 5511 5514 5516 5519 5521 5521 5520 5521 5521 5521 5523 5525 5526 5528 5530 5531 5532 5534
5439 5442 5445 5448 5451 5453 5455 5456 5458 5459 5463 5465 5467 5469 5471 5472 5473 5474 5478 5481 5485 5490 5494 5498 5500 5503 5508 5511 5514 5516 5517 5516 5518 5518 5518 5518 5518 5520 5523 5524 5525 5524 5524 5526
5435 5438 5441 5445 5448 5451 5454 5456 5457 5457 5457 5461 5465 5467 5470 5469 5471 5474 5478 5482 5486 5489 5493 5496 5498 5501 5504 5507 5509 5510 5511 5512 5513 5515 5514 5515 5515 5515 5516 5517 5519 5521 5520 5520
5430 5434 5437 5441 5444 5447 5451 5453 5454 5455 5456 5459 5463 5466 5467 5467 5468 5471 5475 5480 5483 5488 5492 5495 5496 5498 5500 5504 5506 5506 5508 5508 5509 5510 5510 5510 5509 5510 5512 5512 5513 5514 5513 5513
5425 5429 5432 5436 5441 5445 5448 5450 5451 5453 5457 5458 5462 5464 5465 5467 5467 5468 5472 5475 5481 5486 5490 5493 5495 5497 5499 5501 5502 5502 5502 5503 5505 5504 5504 5504 5503 5503 5504 5505 5506 5506 5505 5506
5418 5422 5428 5433 5439 5442 5444 5446 5449 5451 5454 5457 5461 5464 5466 5467 5467 5468 5471 5475 5480 5485 5490 5490 5492 5494 5495 5495 5496 5497 5497 5497 5496 5496 5498 5498 5498 5496 5496 5497 5497 5496 5496 5497
5408 5415 5423 5430 5433 5438 5440 5443 5447 5449 5454 5456 5460 5463 5465 5468 5468 5470 5473 5476 5480 5484 5487 5487 5488 5491 5490 5491 5491 5490 5491 5491 5491 5492 5492 5491 5490 5490 5489 5488 5487 5486 5485 5485
5403 5412 5420 5425 5429 5433 5437 5440 5444 5449 5452 5457 5461 5464 5466 5467 5469 5472 5475 5478 5480 5482 5484 5484 5486 5486 5486 5486 5486 5487 5489 5489 5489 5488 5486 5485 5484 5483 5481 5479 5478 5476 5474 5473
5400 5408 5415 5421 5426 5429 5435 5439 5444 5449 5453 5458 5461 5464 5465 5467 5471 5472 5474 5476 5479 5481 5481 5481 5482 5482 5482 5483 5483 5484 5483 5483 5481 5479 5477 5475 5473 5471 5469 5468 5466 5464 5462 5460
5400 5407 5412 5418 5423 5428 5433 5441 5445 5449 5451 5455 5459 5463 5465 5467 5469 5471 5473 5475 5477 5477 5478 5478 5479 5478 5478 5478 5478 5477 5476 5474 5472 5470 5468 5466 5463 5460 5458 5455 5453 5450 5448 5446
5403 5409 5412 5416 5421 5428 5435 5440 5442 5445 5449 5454 5459 5462 5464 5466 5468 5470 5472 5474 5474 5475 5475 5474 5474 5473 5473 5472 5471 5470 5468 5466 5464 5461 5458 5456 5452 5449 5446 5442 5439 5436 5433 5430
5406 5410 5415 5419 5425 5430 5435 5438 5441 5445 5449 5453 5457 5460 5463 5465 5467 5469 5470 5471 5471 5472 5472 5471 5471 5470 5468 5467 5465 5462 5460 5457 5454 5451 5448 5444 5441 5438 5434 5430 5427 5423 5420 5417
5409 5413 5417 5421 5425 5429 5433 5437 5441 5445 5450 5454 5457 5460 5463 5465 5466 5468 5468 5468 5468 5468 5468 5467 5466 5464 5462 5460 5457 5455 5451 5448 5444 5440 5436 5432 5428 5423 5420 5416 5412 5408 5404 5401